Hourly Data Report for October 25, 2013

All times are specified in Local Standard Time (LST). Add 1 hour to adjust for Daylight Saving Time where and when it is observed.

OTTAWA INTL A
ONTARIO

45°19'00.000" N
75°40'00.000" W
114.90 m
6106001
71628
YOW

Download Data

Hourly Data (October 2013)
Hourly Data Report for October 25, 2013
Temp Definition
°C
Dew Point Temp Definition
°C
Rel Hum Definition
%
Wind Dir Definition
10's deg

Wind Spd Definition
km/h
Visibility Definition
km
Stn Press Definition
kPa
Hmdx Definition


Wind Chill Definition


Weather Definition


TIME
00:00 Legend Double Dagger -0.3 -2.4 86 25 13 24.1 99.99   -4 LegendNANA
01:00 Legend Double Dagger -1.5 -2.9 90 26 10 24.1 100.06   -5 Clear
02:00 Legend Double Dagger -1.2 -2.6 90 27 14 24.1 100.11   -6 LegendNANA
03:00 Legend Double Dagger -0.7 -2.6 87 25 6 24.1 100.17   -3 LegendNANA
04:00 Legend Double Dagger -0.2 -2.3 86 27 15 24.1 100.22   -5 Clear
05:00 Legend Double Dagger -2.0 -3.6 89 25 14 24.1 100.30   -7 LegendNANA
06:00 Legend Double Dagger -1.8 -3.8 86 27 13 24.1 100.35   -6 LegendNANA
07:00 Legend Double Dagger -0.6 -2.7 86 29 10 24.1 100.42   -4 Clear
08:00 Legend Double Dagger 1.2 -1.0 85 23 8 24.1 100.50     LegendNANA
09:00 Legend Double Dagger 3.6 -2.6 64 29 26 24.1 100.54     LegendNANA
10:00 Legend Double Dagger 3.9 -3.6 58 29 26 24.1 100.56     Mostly Cloudy
11:00 Legend Double Dagger 4.1 -3.2 59 28 24 24.1 100.58     LegendNANA
12:00 Legend Double Dagger 4.0 -3.5 58 29 21 24.1 100.55     LegendNANA
13:00 Legend Double Dagger 4.0 -3.8 57 27 23 24.1 100.51     Mostly Cloudy
14:00 Legend Double Dagger 4.4 -4.6 52 28 31 24.1 100.52     LegendNANA
15:00 Legend Double Dagger 4.3 -4.5 53 28 18 24.1 100.52     LegendNANA
16:00 Legend Double Dagger 4.9 -4.1 52 28 22 24.1 100.52     Mostly Cloudy
17:00 Legend Double Dagger 2.3 -4.5 61 26 14 24.1 100.52     LegendNANA
18:00 Legend Double Dagger 3.0 -4.7 57 26 8 24.1 100.56     LegendNANA
19:00 Legend Double Dagger 0.4 -4.6 69 30 1 24.1 100.53     Mainly Clear
20:00 Legend Double Dagger -1.9 -5.6 76 18 9 24.1 100.52   -5 LegendNANA
21:00 Legend Double Dagger -1.0 -4.9 75 19 10 24.1 100.53   -5 LegendNANA
22:00 Legend Double Dagger -0.8 -4.9 74 17 10 24.1 100.48   -4 Mainly Clear
23:00 Legend Double Dagger 0.1 -3.3 78 18 9 24.1 100.42     LegendNANA

Notes on Data Quality.

Legend

  • E = Estimated
  • M = Missing
  • NA = Not Available
  • ‡ = Partner data that is not subject to review by the National Climate Archives
Date modified: